DW9017 Weather Reports


Display with metric or nautical units.
time (UTC)temp
F
wind
direction
speed
MPH
gust
MPH
rain 1hr
in
rain 24hr
in
rain mn
in
humidity
%
barometer
mb
20230206161544 39 311 5.0 18.0 0.00 0.00 0.00 31 827.1
20230206160048 39 279 4.0 11.0 0.00 0.00 0.00 32 826.9
20230206154546 39 273 5.0 10.0 0.00 0.00 0.00 36 826.7
20230206153048 38 261 2.0 5.0 0.00 0.00 0.00 37 826.4
20230206151609 37 256 3.0 11.0 0.00 0.00 0.00 38 826.5
20230206150110 37 285 5.0 21.0 0.00 0.00 0.00 39 826.4
20230206144615 34 229 4.0 15.0 0.00 0.00 0.00 49 826.2
20230206143051 32 279 1.0 6.0 0.00 0.00 0.00 62 825.9
20230206141549 31 293 2.0 12.0 0.00 0.00 0.00 68 825.6
20230206140047 31 5 0.0 0.0 0.00 0.00 0.00 68 825.5
20230206134546 32 34 0.0 0.0 0.00 0.00 0.00 67 825.2
20230206133046 32 101 0.0 0.0 0.00 0.00 0.00 67 825.2
20230206131555 32 99 0.0 4.0 0.00 0.00 0.00 67 825.3
20230206130056 32 265 0.0 5.0 0.00 0.00 0.00 67 825.1
20230206124546 33 92 0.0 0.0 0.00 0.00 0.00 66 824.7
20230206123040 33 90 0.0 6.0 0.00 0.00 0.00 67 824.7
20230206121546 33 89 4.0 7.0 0.00 0.00 0.00 67 824.6
20230206120059 33 59 4.0 9.0 0.00 0.00 0.00 69 824.5
20230206114558 34 43 1.0 9.0 0.00 0.00 0.00 70 824.3
20230206113055 32 261 4.0 10.0 0.00 0.00 0.00 77 823.8
20230206111548 28 279 2.0 7.0 0.00 0.00 0.00 77 823.4
20230206110049 26 212 0.0 2.0 0.00 0.00 0.00 76 823.4
20230206104544 25 212 0.0 2.0 0.00 0.00 0.00 77 823.2
20230206103043 24 212 1.0 4.0 0.00 0.00 0.00 78 823.3
20230206101549 24 203 2.0 3.0 0.00 0.00 0.00 78 823.0
20230206100055 24 204 0.0 0.0 0.00 0.00 0.00 77 823.0
20230206094543 24 200 0.0 0.0 0.00 0.00 0.00 77 823.0
20230206093036 24 200 2.0 4.0 0.00 0.00 0.00 78 823.2
20230206091554 24 221 0.0 0.0 0.00 0.00 0.00 78 823.5
20230206090100 25 220 0.0 0.0 0.00 0.00 0.00 77 823.4
20230206084622 25 217 0.0 0.0 0.00 0.00 0.00 78 823.6
20230206083052 25 247 0.0 3.0 0.00 0.00 0.00 78 823.8
20230206081550 26 247 0.0 0.0 0.00 0.00 0.00 78 823.8
20230206080052 26 247 0.0 0.0 0.00 0.00 0.00 78 824.0
20230206074559 26 247 0.0 0.0 0.00 0.00 0.00 79 824.3
20230206073057 27 338 0.0 0.0 0.00 0.00 0.00 79 824.3
20230206070101 26 334 0.0 4.0 0.00 0.00 0.00 78 824.9
20230206064543 26 267 2.0 4.0 0.00 0.00 0.00 78 824.8
20230206063037 27 215 0.0 0.0 0.00 0.00 0.00 78 825.0
20230206061541 27 211 0.0 4.0 0.00 0.00 0.00 79 825.0
20230206060052 27 278 2.0 7.0 0.00 0.00 0.00 79 825.1
20230206054550 27 343 0.0 3.0 0.00 0.00 0.00 79 825.2
20230206053047 27 275 0.0 6.0 0.00 0.00 0.00 77 825.3
20230206051548 27 215 0.0 0.0 0.00 0.00 0.00 76 825.4
20230206050043 28 215 0.0 3.0 0.00 0.00 0.00 75 825.6
20230206044544 28 298 0.0 0.0 0.00 0.00 0.00 74 825.7
20230206043044 29 298 0.0 0.0 0.00 0.00 0.00 73 825.9
20230206041541 29 298 0.0 0.0 0.00 0.00 0.00 72 825.9
20230206040037 30 298 0.0 0.0 0.00 0.00 0.00 71 825.7
20230206034540 31 298 0.0 0.0 0.00 0.00 0.00 70 825.9
20230206033032 31 298 0.0 0.0 0.00 0.00 0.00 69 826.0
20230206031532 32 298 0.0 0.0 0.00 0.00 0.00 68 826.1
20230206030006 33 298 0.0 3.0 0.00 0.00 0.00 67 826.3
20230206024506 34 298 0.0 0.0 0.00 0.00 0.00 65 826.4
20230206023036 34 298 0.0 0.0 0.00 0.00 0.00 63 826.5
20230206021536 35 298 0.0 0.0 0.00 0.00 0.00 62 826.6
20230206020053 36 338 0.0 0.0 0.00 0.00 0.00 60 826.6
20230206014555 37 68 0.0 0.0 0.00 0.00 0.00 57 826.8
20230206013049 38 68 0.0 0.0 0.00 0.00 0.00 55 826.8
20230206011549 39 68 0.0 0.0 0.00 0.00 0.00 53 826.7
20230206010050 41 83 0.0 0.0 0.00 0.00 0.00 51 826.6
20230206004547 42 38 0.0 0.0 0.00 0.00 0.00 50 826.4
20230206003041 43 57 0.0 0.0 0.00 0.00 0.00 47 826.4
20230206001540 45 57 1.0 6.0 0.00 0.00 0.00 46 826.3
20230206000054 46 1 0.0 5.0 0.00 0.00 0.00 42 826.3
20230205234553 46 9 0.0 3.0 0.00 0.00 0.00 42 826.2
20230205233052 47 18 0.0 3.0 0.00 0.00 0.00 42 826.5
20230205231551 47 39 0.0 6.0 0.00 0.00 0.00 42 826.7
20230205230105 47 54 1.0 5.0 0.00 0.00 0.00 42 826.7
20230205224548 48 51 2.0 5.0 0.00 0.00 0.00 42 826.9
20230205223047 48 60 0.0 5.0 0.00 0.00 0.00 41 826.9
20230205221545 48 16 2.0 7.0 0.00 0.00 0.00 42 827.2
20230205220043 48 74 2.0 8.0 0.00 0.00 0.00 41 827.2
20230205214558 48 70 2.0 7.0 0.00 0.00 0.00 41 827.5
20230205213040 49 52 4.0 8.0 0.00 0.00 0.00 37 827.7
20230205211543 50 67 5.0 9.0 0.00 0.00 0.00 36 827.8
20230205210002 51 58 1.0 7.0 0.00 0.00 0.00 32 827.9
20230205204607 52 57 1.0 5.0 0.00 0.00 0.00 28 828.2
20230205203059 50 38 0.0 0.0 0.00 0.00 0.00 28 828.8
20230205201558 49 37 0.0 4.0 0.00 0.00 0.00 30 829.0
20230205200102 49 54 0.0 5.0 0.00 0.00 0.00 31 829.4
20230205194554 49 72 0.0 6.0 0.00 0.00 0.00 33 829.9
20230205193111 48 98 0.0 5.0 0.00 0.00 0.00 30 830.2
20230205191546 47 78 2.0 6.0 0.00 0.00 0.00 34 830.6
20230205190036 46 61 2.0 4.0 0.00 0.00 0.00 39 831.1
20230205184547 46 55 0.0 4.0 0.00 0.00 0.00 39 831.6
20230205183032 45 13 0.0 0.0 0.00 0.00 0.00 38 831.8
20230205181526 44 12 0.0 2.0 0.00 0.00 0.00 40 832.1
20230205180103 44 360 0.0 4.0 0.00 0.00 0.00 40 832.4
20230205174606 42 6 0.0 2.0 0.00 0.00 0.00 42 832.5
20230205173052 41 36 0.0 3.0 0.00 0.00 0.00 44 832.8
20230205171556 40 289 0.0 0.0 0.00 0.00 0.00 48 832.9
20230205170057 39 278 0.0 0.0 0.00 0.00 0.00 50 833.0
20230205164548 37 278 0.0 0.0 0.00 0.00 0.00 53 833.1
20230205163043 35 278 0.0 0.0 0.00 0.00 0.00 56 833.4